Location: Observatoire
(46.1952°N, 5.3391°E)
Time: 22:10:56
(UTC+01:00)

A-11 Canister half - Pass Details

Date: 25 February 2026
Orbit: 1525 x 1683 km, 47.3° (Epoch: 9 March)

Event Time Altitude Azimuth Distance (km) Brightness Sun altitude
Rises 13:26:47 0° 198° (SSW) 4,791 12.6 34.3°
Reaches altitude 10° 13:30:27 10° 188° (S) 3,784 12.5 34.2°
Maximum altitude 13:38:09 29° 133° (SE) 2,577 10.9 33.9°
Drops below altitude 10° 13:45:41 10° 79° (E) 3,712 10.9 33.5°
Sets 13:49:13 0° 69° (ENE) 4,686 11.2 33.4°
